Location: Los Gatos B&B
(42.6926°N, 77.0646°W)
Time: 04:13:29
(UTC-04:00)

SL-16 R/B - Visible Passes

Search period start: 29 April 2016 00:00
Search period end: 09 May 2016 00:00
Orbit: 843 x 847 km, 71.0° (Epoch: 27 April)

Date Brightness Start Highest point End Pass type
(mag) Time Alt. Az. Time Alt. Az. Time Alt. Az.
29 Apr 4.4 01:26:48 15° E 01:26:48 15° E 01:28:58 10° ENE visible
29 Apr 2.1 03:08:40 70° W 03:09:06 74° WNW 03:14:47 10° NNE visible
29 Apr 4.3 04:51:26 10° WNW 04:54:15 14° NW 04:57:05 10° NNW visible
30 Apr 4.4 01:13:01 14° E 01:13:01 14° E 01:14:49 10° ENE visible
30 Apr 2.1 02:54:54 75° W 02:55:03 76° WNW 03:00:44 10° NNE visible
30 Apr 4.3 04:37:14 10° WNW 04:40:10 14° NW 04:43:08 10° NNW visible
01 May 4.5 00:59:13 13° E 00:59:13 13° E 01:00:38 10° ENE visible
01 May 2.1 02:41:05 78° NW 02:41:05 78° NW 02:46:42 10° NNE visible
01 May 4.3 04:23:02 10° WNW 04:26:06 15° NW 04:29:10 10° NNW visible
02 May 4.5 00:45:23 12° ENE 00:45:23 12° ENE 00:46:28 10° ENE visible
02 May 2.2 02:27:15 78° NNW 02:27:15 78° NNW 02:32:39 10° NNE visible
02 May 4.3 04:09:07 11° WNW 04:12:01 15° NW 04:15:11 10° N visible
03 May 4.5 00:31:30 12° ENE 00:31:30 12° ENE 00:32:17 10° ENE visible
03 May 2.2 02:13:22 75° N 02:13:22 75° N 02:18:37 10° NNE visible
03 May 4.2 03:55:14 11° WNW 03:57:56 15° NW 04:01:13 10° N visible
04 May 4.6 00:17:36 11° ENE 00:17:36 11° ENE 00:18:04 10° ENE visible
04 May 2.3 01:59:28 72° N 01:59:28 72° N 02:04:34 10° NNE visible
04 May 4.2 03:41:20 12° WNW 03:43:52 16° NW 03:47:15 10° N visible
05 May 4.6 00:03:40 10° ENE 00:03:40 10° ENE 00:03:52 10° ENE visible
05 May 2.4 01:45:32 70° NNE 01:45:32 70° NNE 01:50:32 10° NNE visible
05 May 4.2 03:27:24 13° WNW 03:29:47 16° NW 03:33:16 10° N visible
06 May 2.4 01:31:34 68° NNE 01:31:34 68° NNE 01:36:30 10° NNE visible
06 May 4.2 03:13:26 14° WNW 03:15:43 17° NW 03:19:17 10° N visible
07 May 2.4 01:17:34 67° NNE 01:17:34 67° NNE 01:22:27 10° NNE visible
07 May 4.2 02:59:25 14° WNW 03:01:38 17° NW 03:05:18 10° N visible
08 May 2.4 01:03:32 66° NE 01:03:32 66° NE 01:08:24 10° NNE visible
08 May 4.2 02:45:23 14° WNW 02:47:34 18° NW 02:51:19 10° N visible
